TimeCDT,TemperatureF,Dew PointF,Humidity,Sea Level PressureIn,VisibilityMPH,Wind Direction,Wind SpeedMPH,Gust SpeedMPH,PrecipitationIn,Events,Conditions,WindDirDegrees,DateUTC
12:52 AM,21.9,18.0,85,30.42,10.0,SSW,3.5,-,N/A,,Clear,210,2013-04-23 05:52:00
1:52 AM,23.0,19.9,88,30.40,10.0,SSW,4.6,-,N/A,,Clear,200,2013-04-23 06:52:00
2:52 AM,24.1,19.0,81,30.36,10.0,SW,8.1,-,N/A,,Clear,220,2013-04-23 07:52:00
3:52 AM,24.1,19.0,81,30.34,10.0,SW,8.1,-,N/A,,Clear,220,2013-04-23 08:52:00
4:52 AM,23.0,19.0,85,30.32,10.0,SW,8.1,-,N/A,,Clear,220,2013-04-23 09:52:00
5:52 AM,23.0,18.0,81,30.30,10.0,SW,8.1,-,N/A,,Clear,230,2013-04-23 10:52:00
6:52 AM,21.9,19.0,89,30.28,10.0,SW,9.2,-,N/A,,Clear,220,2013-04-23 11:52:00
7:52 AM,26.1,21.0,81,30.26,10.0,WSW,11.5,-,N/A,,Clear,240,2013-04-23 12:52:00
8:52 AM,32.0,23.0,69,30.26,10.0,West,12.7,-,N/A,,Clear,260,2013-04-23 13:52:00
9:52 AM,35.1,24.1,64,30.25,10.0,West,15.0,24.2,N/A,,Clear,270,2013-04-23 14:52:00
10:52 AM,37.9,21.9,53,30.22,10.0,West,17.3,26.5,N/A,,Mostly Cloudy,260,2013-04-23 15:52:00
11:52 AM,43.0,21.0,42,30.20,10.0,West,20.7,28.8,N/A,,Clear,270,2013-04-23 16:52:00
12:52 PM,46.0,21.9,39,30.17,10.0,West,19.6,26.5,N/A,,Clear,280,2013-04-23 17:52:00
1:52 PM,48.0,21.9,36,30.14,10.0,WNW,19.6,-,N/A,,Partly Cloudy,290,2013-04-23 18:52:00
2:52 PM,46.0,19.9,35,30.12,10.0,WNW,15.0,-,N/A,,Overcast,300,2013-04-23 19:52:00
3:44 PM,44.6,21.2,39,30.05,10.0,NNW,11.5,28.8,N/A,,Overcast,330,2013-04-23 20:44:00
3:52 PM,45.0,21.9,40,30.11,10.0,NW,13.8,24.2,N/A,,Overcast,310,2013-04-23 20:52:00
4:52 PM,45.0,21.9,40,30.10,10.0,WNW,9.2,20.7,N/A,,Overcast,290,2013-04-23 21:52:00
5:52 PM,44.1,24.1,45,30.09,10.0,NNW,9.2,-,N/A,,Overcast,330,2013-04-23 22:52:00
6:52 PM,44.1,27.0,51,30.08,10.0,Calm,Calm,-,0.00,,Partly Cloudy,0,2013-04-23 23:52:00
7:52 PM,41.0,27.0,57,30.08,10.0,NNW,11.5,-,N/A,,Overcast,340,2013-04-24 00:52:00
8:19 PM,35.6,30.2,81,30.04,7.0,NNW,15.0,21.9,0.00,Snow,Light Snow,340,2013-04-24 01:19:00
8:52 PM,34.0,33.1,96,30.10,6.0,NW,5.8,-,0.01,Snow,Light Snow,320,2013-04-24 01:52:00
9:15 PM,33.8,32.0,93,30.02,10.0,Calm,Calm,-,0.00,,Mostly Cloudy,0,2013-04-24 02:15:00
9:52 PM,32.0,32.0,100,30.09,10.0,WNW,3.5,-,0.00,,Mostly Cloudy,300,2013-04-24 02:52:00
10:52 PM,32.0,30.9,96,30.08,9.0,SW,4.6,-,N/A,,Clear,220,2013-04-24 03:52:00
11:52 PM,30.9,30.9,100,30.06,7.0,South,3.5,-,N/A,,Partly Cloudy,190,2013-04-24 04:52:00